Weather History for Point Petre, ON

Change the Weather History Date:

Tuesday, October 2, 2012

  Actual Average Record
Temperature  
Mean Temperature 60 °F -  
Max Temperature 64 °F - - ()
Min Temperature 57 °F - - ()
Degree Days  
Heating Degree Days 4    
Growing Degree Days 10 (Base 50)    
Moisture  
Dew Point 56 °F    
Average Humidity 83    
Maximum Humidity 91    
Minimum Humidity 64    
Precipitation  
Precipitation 0.08 in - - ()
Sea Level Pressure  
Sea Level Pressure 29.93 in    
Wind  
Wind Speed 8 mph ()    
Max Wind Speed 14 mph    
Max Gust Speed -    
T = Trace of Precipitation, MM = Missing Value Source: Averaged Metar Reports

Daily Weather History Graph

Daily Weather History Graph

Search for Another Location

Airport:

Trip Planner

Search our weather history database for the weather conditions in past years. The results will help you decide how hot, cold, wet, or windy it might be!

Date:

Astronomy

Oct. 02, 2012 Rise Set
Actual Time 7:07 AM EDT 6:46 PM EDT
Civil Twilight 6:39 AM EDT 7:15 PM EDT
Nautical Twilight 6:05 AM EDT 7:48 PM EDT
Astronomical Twilight 5:32 AM EDT 8:22 PM EDT
Moon 7:51 PM EDT (10/2) 9:39 AM EDT (10/2)
Length of Visible Light 12h 36m
Length of Day
11h 38m
Waning Gibbous, 94% of the Moon is Illuminated
Oct 2
Waning Gibbous
Oct 8
Last Quarter
Oct 15
New
Oct 21
First Quarter
Oct 29
Full

Hourly Weather History & Observations

Time (EDT) Temp. Dew Point Humidity Pressure Visibility Wind Dir Wind Speed Gust Speed Precip Events Conditions
12:00 AM 62.6 °F 52.5 °F 70% 29.91 in - West 11.5 mph - N/A   Unknown
1:00 AM 62.1 °F 53.4 °F 73% 29.90 in - West 6.9 mph - N/A   Unknown
2:00 AM 62 °F 53 °F 64% 29.90 in - West 4.6 mph - -  
2:00 AM 61.9 °F 52.9 °F 72% 29.90 in - West 4.6 mph - N/A   Unknown
3:00 AM 60.4 °F 53.4 °F 78% 29.91 in - WSW 4.6 mph - N/A   Unknown
4:00 AM 57.9 °F 54.1 °F 87% 29.90 in - South 8.1 mph - N/A   Unknown
5:00 AM 61 °F 55 °F 76% 29.90 in - South 8.1 mph - -  
5:00 AM 61.3 °F 55.4 °F 81% 29.90 in - South 8.1 mph - N/A   Unknown
6:00 AM 61.3 °F 54.0 °F 77% 29.91 in - SSE 9.2 mph - N/A   Unknown
7:00 AM 61.3 °F 55.6 °F 81% 29.91 in - ESE 9.2 mph - N/A   Unknown
8:00 AM 61 °F 55 °F 74% 29.91 in - ESE 12.7 mph - -  
8:00 AM 61.2 °F 54.9 °F 80% 29.91 in - ESE 12.7 mph - N/A   Unknown
9:00 AM 61.9 °F 55.2 °F 79% 29.92 in - SE 12.7 mph - N/A   Unknown
10:00 AM 62.4 °F 55.4 °F 78% 29.93 in - SSE 13.8 mph - N/A   Unknown
11:00 AM 60 °F 57 °F 85% 29.94 in - SSE 11.5 mph - -  
11:00 AM 60.1 °F 56.7 °F 88% 29.94 in - SSE 11.5 mph - 0.04 in   Unknown
12:00 PM 59.9 °F 56.1 °F 87% 29.94 in - SE 4.6 mph - 0.03 in   Unknown
1:00 PM 60.8 °F 57.2 °F 88% 29.92 in - SE 9.2 mph - N/A   Unknown
2:00 PM 61 °F 58 °F 85% 29.92 in - SSE 9.2 mph - -  
2:00 PM 61.3 °F 57.6 °F 87% 29.92 in - SSE 9.2 mph - N/A   Unknown
3:00 PM 60.6 °F 57.9 °F 91% 29.93 in - SSE 11.5 mph - N/A   Unknown
4:00 PM 61.5 °F 57.6 °F 87% 29.92 in - East 4.6 mph - N/A   Unknown
5:00 PM 61 °F 58 °F 85% 29.93 in - ENE 5.8 mph - -  
5:00 PM 61.2 °F 57.6 °F 88% 29.93 in - ENE 5.8 mph - N/A   Unknown
6:00 PM 61.2 °F 57.6 °F 88% 29.94 in - ENE 6.9 mph - N/A   Unknown
7:00 PM 60.6 °F 57.4 °F 89% 29.95 in - NE 9.2 mph - N/A   Unknown
8:00 PM 61 °F 57 °F 83% 29.96 in - ENE 9.2 mph - -  
8:00 PM 60.6 °F 57.2 °F 88% 29.96 in - ENE 9.2 mph - N/A   Unknown
9:00 PM 61.0 °F 57.4 °F 88% 29.98 in - ENE 10.4 mph - N/A   Unknown
10:00 PM 62.1 °F 58.6 °F 89% 29.98 in - East 11.5 mph - N/A   Unknown
11:00 PM 62 °F 59 °F 87% 29.99 in - East 11.5 mph - -  
11:00 PM 62.4 °F 59.0 °F 89% 29.99 in - East 11.5 mph - N/A   Unknown